St. Johns, AZ

12:18 PM MST on October 18, 2019 (GMT -0700)
Saint Johns Industrial

Weather History for KSJN - August, 2019

Change the Weather History Date:

Tuesday, August 27, 2019

  Actual Average (WUND) Record (WUND)
Temperature  
Mean Temperature 62 °F -  
Max Temperature 75 °F - - (-1)
Min Temperature 48 °F - - (-1)
Degree Days  
Heating Degree Days 4    
Growing Degree Days 12 (Base 50)    
Moisture  
Dew Point 41 °F    
Average Humidity 30    
Maximum Humidity 63    
Minimum Humidity 9    
Precipitation  
Precipitation 0.00 in - - ()
Sea Level Pressure  
Sea Level Pressure 29.81 in    
Wind  
Wind Speed 5 mph (WSW)    
Max Wind Speed 17 mph    
Max Gust Speed 18 mph    
Visibility 10 miles    
Events      
Averages and records for this station are not official NWS values.
T = Trace of Precipitation, MM = Missing Value Source: NWS Daily Summary

Daily Weather History Graph

Daily Weather History Graph

Search for Another Location

Airport or City:

Astronomy

Aug. 27, 2019 Rise Set
Actual Time 5:46 AM MST 6:50 PM MST
Civil Twilight 5:21 AM MST 7:16 PM MST
Nautical Twilight 4:50 AM MST 7:47 PM MST
Astronomical Twilight 4:18 AM MST 8:18 PM MST
Moon 2:24 AM MST (8/27) 5:06 PM MST (8/27)
Length of Visible Light 13h 55m
Length of Day
13h 03m
Waning Crescent, 10% of the Moon is Illuminated
Aug 27
Waning Crescent
Aug 30
New
Sep 5
First Quarter
Sep 13
Full
Sep 21
Last Quarter

Hourly Weather History & Observations

Time (MST) Temp. Dew Point Humidity Pressure Visibility Wind Dir Wind Speed Gust Speed Precip Events Conditions
12:54 AM 71.1 °F 46.0 °F 41% 29.78 in 10.0 mi WNW 4.6 mph - N/A   Clear
1:54 AM 66.0 °F 46.9 °F 50% 29.79 in 10.0 mi Calm Calm - N/A   Clear
2:54 AM 64.9 °F 46.0 °F 50% 29.78 in 10.0 mi South 4.6 mph - N/A   Clear
3:54 AM 68.0 °F 45.0 °F 43% 29.78 in 10.0 mi SSW 9.2 mph - N/A   Clear
4:54 AM 66.0 °F 44.1 °F 45% 29.79 in 10.0 mi SSE 4.6 mph - N/A   Clear
5:54 AM 64.0 °F 44.1 °F 48% 29.83 in 10.0 mi South 4.6 mph - N/A   Clear
6:54 AM 68.0 °F 45.0 °F 43% 29.84 in 10.0 mi SSE 5.8 mph - N/A   Clear
7:54 AM 75.0 °F 46.9 °F 37% 29.85 in 10.0 mi Calm Calm - N/A   Clear
8:54 AM 79.0 °F 46.9 °F 32% 29.85 in 10.0 mi Variable 3.5 mph - N/A   Clear
9:54 AM 82.9 °F 46.0 °F 27% 29.83 in 10.0 mi Variable 3.5 mph - N/A   Clear
10:54 AM 88.0 °F 43.0 °F 21% 29.81 in 10.0 mi Variable 3.5 mph - N/A   Clear
11:54 AM 91.9 °F 39.0 °F 16% 29.79 in 10.0 mi Variable 4.6 mph - N/A   Clear
12:54 PM 95.0 °F 35.1 °F 12% 29.77 in 10.0 mi NW 9.2 mph - N/A   Clear
1:54 PM 97.0 °F 35.1 °F 11% 29.76 in 10.0 mi WNW 11.5 mph 18.4 mph N/A   Clear
2:54 PM 97.0 °F 33.1 °F 11% 29.74 in 10.0 mi NNW 10.4 mph - N/A   Clear
3:54 PM 97.0 °F 30.9 °F 10% 29.72 in 10.0 mi West 5.8 mph - N/A   Clear
4:54 PM 93.0 °F 32.0 °F 12% 29.73 in 10.0 mi Variable 4.6 mph - N/A   Clear
6:54 PM 87.1 °F 36.0 °F 16% 29.77 in 10.0 mi WSW 10.4 mph - N/A   Clear
7:54 PM 82.0 °F 41.0 °F 23% 29.78 in 10.0 mi WSW 15.0 mph - N/A   Clear
8:54 PM 81.0 °F 41.0 °F 24% 29.80 in 10.0 mi WSW 15.0 mph - N/A   Clear
9:54 PM 80.1 °F 39.9 °F 24% 29.79 in 10.0 mi WSW 17.3 mph - N/A   Clear
10:54 PM 78.1 °F 39.9 °F 25% 29.81 in 10.0 mi North 5.8 mph - N/A   Clear
11:54 PM 73.9 °F 41.0 °F 30% 29.83 in 10.0 mi NNW 3.5 mph - N/A   Clear